Flag for Canada Weather past 2 weeks in Camrose, Alberta, Canada

Now
50 °F

Passing clouds.


Feels Like: 47 °F
Forecast: 53 / 74 °F
Wind: 7 mph from South

Location: Edmonton International

Current Time: Aug 30, 2015 at 12:55:10 AM

Latest Report: Aug 30, 2015 at 12:00 AM


Visibility: 15 mi

Pressure: 29.46 "Hg (26.93 "Hg at 744m altitude)

Humidity: 82%

Dew point: 45 °F

Location of CamroseLocation

Historic Weather in Camrose — Graph

°F

Camrose temperature yesterday

Maximum temperature yesterday: 77 °F (at 3:00 PM)
Minimum temperature yesterday: 45 °F (at 7:00 AM)
Average temperature yesterday: 62 °F

Past Weeks' High & Low Weather Summary

 TemperatureHumidityPressure
High81 °F (Aug 28, 4:00 PM)100% (Aug 16, 3:00 AM)30.27 "Hg (Aug 16, 3:00 AM)
Low34 °F (Aug 17, 6:00 AM)28% (Aug 28, 4:00 PM)29.42 "Hg (Aug 29, 8:00 PM)
Average56 °F73%29.97 "Hg
* Reported Aug 14 11:00 PM — Aug 29 11:00 PM, Camrose, Weather by CustomWeather, © 2015

Note: Actual official high and low records may vary slightly from our data, if they occured in-between our weather recording intervals... More about our weather records

Advertising

Camrose weather history for previous 24 hours

 ConditionsComfort  
Time TempWeatherWind HumidityBarometerVisibility
11:00 PM
Sat, Aug 29
54 °FPassing clouds.7 mph88%29.47 "Hg15 mi
10:00 PM61 °FPassing clouds.8 mph77%29.45 "Hg12 mi
9:00 PM70 °FBroken clouds.16 mph53%29.42 "Hg12 mi
8:00 PM72 °FMostly cloudy.20 mph50%29.42 "Hg12 mi
7:00 PM73 °FPartly sunny.21 mph44%29.45 "Hg12 mi
6:00 PM77 °FOvercast.26 mph39%29.46 "Hg12 mi
5:00 PM77 °FMore clouds than sun.25 mph39%29.49 "Hg15 mi
4:00 PM77 °FPartly sunny.17 mph39%29.54 "Hg15 mi
3:00 PM77 °FPartly sunny.18 mph36%29.59 "Hg15 mi
2:00 PM73 °FBroken clouds.16 mph38%29.65 "Hg15 mi
1:00 PM70 °FBroken clouds.9 mph50%29.70 "Hg15 mi
12:00 PM70 °FBroken clouds.2 mph50%29.74 "Hg15 mi
11:00 AM63 °FPartly sunny.No wind64%29.77 "Hg15 mi
10:00 AM61 °FPartly sunny.No wind63%29.78 "Hg15 mi
9:00 AM55 °FPartly sunny.2 mph88%29.79 "Hg15 mi
8:00 AM50 °FPartly sunny.3 mph94%29.78 "Hg15 mi
7:00 AM45 °FPassing clouds.3 mph93%29.79 "Hg15 mi
6:00 AM50 °FPartly cloudy.6 mph82%29.77 "Hg15 mi
5:00 AM48 °FPassing clouds.5 mph87%29.76 "Hg15 mi
4:00 AM48 °FPassing clouds.8 mph87%29.75 "Hg15 mi
3:00 AM55 °FOvercast.7 mph77%29.72 "Hg15 mi
2:00 AM57 °FOvercast.10 mph72%29.70 "Hg15 mi
1:00 AM54 °FPassing clouds.8 mph77%29.67 "Hg15 mi
12:00 AM54 °FMostly cloudy.No wind82%29.67 "Hg12 mi
Weather by CustomWeather, © 2015

See weather overviewHow to use our weather pages